Tiempo cada hora Abadiânia

Hoy, 24 Junio, Jueves

Tiempo Temperatura Precipitaciones Viento Presión Humedad
00:00 +19°C° 0 mm 1 mps 678 mmHg 56%
01:00 +19°C° 0 mm 1 mps 678 mmHg 58%
02:00 +18°C° 0 mm 1 mps 677 mmHg 59%
03:00 +18°C° 0 mm 1 mps 677 mmHg 61%
04:00 +18°C° 0 mm 1 mps 677 mmHg 62%
05:00 +16°C° 0 mm 1 mps 677 mmHg 63%
06:00 +16°C° 0 mm 1 mps 677 mmHg 63%
07:00 +18°C° 0 mm 2 mps 678 mmHg 58%
08:00 +20°C° 0 mm 3 mps 678 mmHg 52%
09:00 +23°C° 0 mm 4 mps 679 mmHg 46%
10:00 +26°C° 0 mm 4 mps 679 mmHg 40%
11:00 +28°C° 0 mm 4 mps 679 mmHg 34%
12:00 +30°C° 0 mm 4 mps 679 mmHg 28%
13:00 +30°C° 0 mm 3 mps 678 mmHg 27%
14:00 +30°C° 0 mm 3 mps 678 mmHg 25%
15:00 +31°C° 0 mm 2 mps 677 mmHg 24%
16:00 +28°C° 0 mm 1 mps 677 mmHg 28%
17:00 +26°C° 0 mm 1 mps 677 mmHg 32%
18:00 +24°C° 0 mm 1 mps 677 mmHg 37%
19:00 +21°C° 0 mm 0 mps 677 mmHg 39%
20:00 +20°C° 0 mm 0 mps 677 mmHg 40%
21:00 +19°C° 0 mm 0 mps 678 mmHg 42%
22:00 +18°C° 0 mm 0 mps 677 mmHg 45%
23:00 +18°C° 0 mm 0 mps 677 mmHg 47%

Mañana, 25 Junio, Viernes

Tiempo Temperatura Precipitaciones Viento Presión Humedad
00:00 +19°C° 0 mm 1 mps 677 mmHg 49%
01:00 +19°C° 0 mm 1 mps 677 mmHg 52%
02:00 +19°C° 0 mm 1 mps 677 mmHg 54%
03:00 +16°C° 0 mm 0 mps 676 mmHg 56%
04:00 +18°C° 0 mm 1 mps 676 mmHg 58%
05:00 +18°C° 0 mm 1 mps 676 mmHg 59%
06:00 +18°C° 0 mm 1 mps 677 mmHg 60%
07:00 +20°C° 0 mm 1 mps 678 mmHg 53%
08:00 +21°C° 0 mm 2 mps 679 mmHg 47%
09:00 +25°C° 0 mm 2 mps 680 mmHg 41%
10:00 +26°C° 0 mm 2 mps 680 mmHg 36%
11:00 +28°C° 0 mm 2 mps 680 mmHg 31%
12:00 +30°C° 0 mm 2 mps 680 mmHg 26%
13:00 +31°C° 0 mm 2 mps 679 mmHg 25%
14:00 +31°C° 0 mm 2 mps 678 mmHg 24%
15:00 +31°C° 0 mm 2 mps 678 mmHg 23%
16:00 +29°C° 0 mm 2 mps 677 mmHg 27%
17:00 +26°C° 0 mm 2 mps 677 mmHg 32%
18:00 +24°C° 0 mm 2 mps 677 mmHg 36%
19:00 +23°C° 0 mm 2 mps 677 mmHg 39%
20:00 +21°C° 0 mm 2 mps 677 mmHg 41%
21:00 +20°C° 0 mm 2 mps 677 mmHg 43%
22:00 +19°C° 0 mm 2 mps 677 mmHg 45%
23:00 +19°C° 0 mm 2 mps 677 mmHg 46%

Pasado mañana, 26 Junio, Sábado

Tiempo Temperatura Precipitaciones Viento Presión Humedad
00:00 +18°C° 0 mm 2 mps 677 mmHg 48%
01:00 +18°C° 0 mm 2 mps 676 mmHg 49%
02:00 +17°C° 0 mm 2 mps 676 mmHg 50%
03:00 +17°C° 0 mm 2 mps 676 mmHg 52%
04:00 +17°C° 0 mm 2 mps 676 mmHg 52%
05:00 +16°C° 0 mm 2 mps 676 mmHg 53%
06:00 +16°C° 0 mm 2 mps 676 mmHg 53%
07:00 +18°C° 0 mm 3 mps 677 mmHg 48%
08:00 +20°C° 0 mm 4 mps 678 mmHg 43%
09:00 +22°C° 0 mm 4 mps 679 mmHg 38%
10:00 +25°C° 0 mm 4 mps 679 mmHg 33%
11:00 +27°C° 0 mm 4 mps 679 mmHg 28%
12:00 +29°C° 0 mm 4 mps 679 mmHg 23%
13:00 +29°C° 0 mm 4 mps 679 mmHg 22%
14:00 +29°C° 0 mm 4 mps 678 mmHg 21%
15:00 +30°C° 0 mm 3 mps 677 mmHg 19%
16:00 +27°C° 0 mm 3 mps 677 mmHg 24%
17:00 +25°C° 0 mm 2 mps 677 mmHg 29%
18:00 +21°C° 0 mm 2 mps 676 mmHg 34%
19:00 +20°C° 0 mm 2 mps 677 mmHg 37%
20:00 +19°C° 0 mm 2 mps 677 mmHg 41%
21:00 +18°C° 0 mm 2 mps 677 mmHg 44%
22:00 +17°C° 0 mm 2 mps 677 mmHg 46%
23:00 +17°C° 0 mm 2 mps 677 mmHg 47%

27 Junio, Domingo

Tiempo Temperatura Precipitaciones Viento Presión Humedad
00:00 +16°C° 0 mm 2 mps 677 mmHg 48%
01:00 +16°C° 0 mm 2 mps 677 mmHg 47%
02:00 +16°C° 0 mm 2 mps 676 mmHg 46%
03:00 +15°C° 0 mm 1 mps 676 mmHg 45%
04:00 +15°C° 0 mm 2 mps 676 mmHg 45%
05:00 +15°C° 0 mm 2 mps 676 mmHg 44%
06:00 +14°C° 0 mm 2 mps 677 mmHg 44%
07:00 +16°C° 0 mm 2 mps 677 mmHg 40%
08:00 +18°C° 0 mm 3 mps 678 mmHg 37%
09:00 +20°C° 0 mm 3 mps 679 mmHg 33%
10:00 +24°C° 0 mm 3 mps 679 mmHg 30%
11:00 +26°C° 0 mm 2 mps 679 mmHg 27%
12:00 +29°C° 0 mm 2 mps 680 mmHg 24%
13:00 +29°C° 0 mm 2 mps 679 mmHg 22%
14:00 +30°C° 0 mm 2 mps 679 mmHg 21%
15:00 +30°C° 0 mm 2 mps 678 mmHg 20%
16:00 +28°C° 0 mm 2 mps 678 mmHg 25%
17:00 +25°C° 0 mm 2 mps 677 mmHg 29%
18:00 +23°C° 0 mm 1 mps 677 mmHg 34%
19:00 +22°C° 0 mm 1 mps 677 mmHg 37%
20:00 +21°C° 0 mm 1 mps 677 mmHg 40%
21:00 +19°C° 0 mm 1 mps 678 mmHg 43%
22:00 +19°C° 0 mm 1 mps 678 mmHg 45%
23:00 +18°C° 0 mm 1 mps 678 mmHg 48%

28 Junio, Lunes

Tiempo Temperatura Precipitaciones Viento Presión Humedad
00:00 +16°C° 0 mm 1 mps 678 mmHg 51%
01:00 +16°C° 0 mm 1 mps 677 mmHg 52%
02:00 +16°C° 0 mm 1 mps 677 mmHg 53%
03:00 +15°C° 0 mm 1 mps 677 mmHg 54%
04:00 +15°C° 0 mm 1 mps 677 mmHg 55%
05:00 +15°C° 0 mm 1 mps 677 mmHg 55%
06:00 +14°C° 0 mm 1 mps 677 mmHg 56%
07:00 +17°C° 0 mm 2 mps 678 mmHg 49%
08:00 +19°C° 0 mm 2 mps 679 mmHg 42%
09:00 +23°C° 0 mm 2 mps 680 mmHg 35%
10:00 +25°C° 0 mm 2 mps 680 mmHg 30%
11:00 +27°C° 0 mm 2 mps 680 mmHg 26%
12:00 +29°C° 0 mm 2 mps 680 mmHg 22%
13:00 +29°C° 0 mm 2 mps 680 mmHg 22%
14:00 +29°C° 0 mm 2 mps 679 mmHg 21%
15:00 +30°C° 0 mm 2 mps 679 mmHg 21%
16:00 +27°C° 0 mm 2 mps 679 mmHg 25%
17:00 +25°C° 0 mm 2 mps 678 mmHg 29%
18:00 +23°C° 0 mm 1 mps 678 mmHg 34%
19:00 +21°C° 0 mm 1 mps 678 mmHg 36%
20:00 +20°C° 0 mm 1 mps 679 mmHg 38%
21:00 +18°C° 0 mm 2 mps 679 mmHg 40%
22:00 +18°C° 0 mm 1 mps 679 mmHg 41%
23:00 +18°C° 0 mm 1 mps 679 mmHg 43%

29 Junio, Martes

Tiempo Temperatura Precipitaciones Viento Presión Humedad
00:00 +16°C° 0 mm 1 mps 679 mmHg 44%
01:00 +16°C° 0 mm 1 mps 678 mmHg 44%
02:00 +15°C° 0 mm 1 mps 678 mmHg 44%
03:00 +15°C° 0 mm 1 mps 678 mmHg 44%
04:00 +15°C° 0 mm 1 mps 678 mmHg 44%
05:00 +14°C° 0 mm 1 mps 678 mmHg 45%
06:00 +14°C° 0 mm 1 mps 678 mmHg 45%
07:00 +16°C° 0 mm 1 mps 679 mmHg 42%
08:00 +18°C° 0 mm 2 mps 680 mmHg 38%
09:00 +21°C° 0 mm 2 mps 681 mmHg 34%
10:00 +24°C° 0 mm 2 mps 681 mmHg 31%
11:00 +26°C° 0 mm 2 mps 681 mmHg 28%
12:00 +28°C° 0 mm 3 mps 681 mmHg 25%
13:00 +28°C° 0 mm 2 mps 681 mmHg 23%
14:00 +29°C° 0 mm 2 mps 680 mmHg 21%
15:00 +29°C° 0 mm 2 mps 680 mmHg 20%
16:00 +27°C° 0 mm 2 mps 679 mmHg 24%
17:00 +24°C° 0 mm 1 mps 679 mmHg 28%
18:00 +22°C° 0 mm 1 mps 679 mmHg 32%
19:00 +21°C° 0 mm 1 mps 679 mmHg 34%
20:00 +20°C° 0 mm 1 mps 679 mmHg 36%
21:00 +19°C° 0 mm 1 mps 679 mmHg 38%
22:00 +18°C° 0 mm 1 mps 679 mmHg 41%
23:00 +16°C° 0 mm 1 mps 679 mmHg 44%
Mostrar más

Necesitamos Su Consentimiento

Meteoprog y nuestros Proveedores de Servicios pueden almacenar y acceder a sus datos personales como cookies, identificadores de dispositivo u otras tecnologías similares de su dispositivo y procesar dichos datos para personalizar contenido y anuncios, además de ofrecer funciones de redes sociales y analizar el tráfico.

  • Almacenar y/o acceder a información en su dispositivo

    Se puede almacenar o acceder a cookies, identificadores de dispositivo u otra información de su dispositivo para los fines anteriormente indicados.

  • Anuncios y contenido personalizados, medición de anuncios y contenido, percepciones del público, y desarrollo de productos

    Los anuncios y el contenido pueden personalizarse en base a su perfil. Se pueden añadir más datos para personalizar mejor los anuncios y contenidos. Se puede medir el rendimiento de los anuncios y contenidos. Se puede obtener la percepción sobre el público que ha visto los anuncios y contenidos. Dichos datos pueden usarse para desarrollar o mejorar la experiencia del usuario, sistemas y software.

Al hacer clic en ‘Estoy De Acuerdo’ usted permitirá el uso de las cookies, identificadores de dispositivo, balizas web u otras tecnologías similares indicadas. Su configuración puede cambiarse desde el navegador de su dispositivo.

Para ciertos fines, los intereses legítimos pueden ser considerados por encima del consentimiento. Puede leer más sobre ello en nuestra Política de Privacidad y Cookies.